Location: Columbia
(38.9520°N, 92.3340°W)
Time: 13:50:02
(UTC-05:00)

Cosmos 1603 - Visible Passes

Search period start: 02 September 2014 00:00
Search period end: 12 September 2014 00:00
Orbit: 830 x 861 km, 71.0° (Epoch: 01 September)

Date Brightness Start Highest point End Pass type
(mag) Time Alt. Az. Time Alt. Az. Time Alt. Az.
02 Sep 6.9 06:07:22 10° ESE 06:09:12 12° E 06:11:02 10° ENE visible
03 Sep 6.9 05:53:51 10° ESE 05:55:24 11° E 05:56:58 10° E visible
04 Sep 6.9 05:40:24 10° ESE 05:41:37 11° E 05:42:49 10° E visible
05 Sep 7.0 05:27:07 10° ESE 05:27:49 10° E 05:28:31 10° E visible
09 Sep 3.9 06:10:07 10° SSW 06:15:45 80° ESE 06:21:28 10° NNE visible
10 Sep 3.9 05:56:18 10° SSW 06:01:56 77° ESE 06:07:38 10° NNE visible
11 Sep 3.9 05:42:30 10° SSW 05:48:07 75° ESE 05:53:49 10° NNE visible
